Showing default

SHIYAN 28B-01(SY-28B 01), 64753

Orbit data source: Space-Track

SHIYAN 28B-01(SY-28B 01), 64753 is a payload satellite owned by PLA GAD (CN) in LEO that was launched on Thu, 03 Jul 2025 UTC via a CHANG ZHENG 4C launch vehicle from the Xichang Space Center, China (XSC). Payload-class satellites include a variety of spacecraft equipped with specific instruments for various scientific and technological missions. These include communications satellites like Starlink; space stations such as the ISS; scientific satellites like the Hubble; Earth observation satellites from companies like Planet Labs, Umbra, and HawkEye 360; GPS; miniature CubeSats for education and research; and military/defense satellites.

Not visible in the next 10 days
Identifier
64753, 2025-145A
Orbit
LEO
Country
Flag of CNCN / PRC
Related business
Manufacturer
IMI/CAS
Mission
Operational Defense Earth Obs Sci
Bus & Motor
Unknown
Mass
~2,000 kg wet, ~2,000 kg dry
Launch date (UTC)
2025-07-03 (1 year ago)
Launch vehicle
CHANG ZHENG 4C
Launch site
Xichang Space Center, China (XSC)
Object type
Payload
Rocket body
Debris
Shape & HBR
Box + 2 Pan, 1.9 m
Radar Cross Section
11.063 m², Large (>1 m²)

Expand to show TLE details & history
Last TLE update: 6 hours ago

TLE from 6 hours ago
0 SHIYAN 28B-01(SY-28B 01)
1 64753U 25145A   26178.46888786  .00000598  00000-0  63986-4 0  9999
2 64753  10.9987 259.4977 0003294 273.6920  86.2931 14.29400080 51385
Epoch: 2026-06-27T11:15Z
TLE epoch observation values (Epoch: 2026-06-27T11:15:11.911Z)
Latitude
-0°
Longitude
175.11545°
Altitude
790.75 km
Speed
7.461 km/s
True Right ascension
17h 17m 59s
True Declination
0° 00' 00"
Sunlit
Object was in full shadow at epoch
Visualization orbit readout
Latitude
Unknown
Longitude
Unknown
Altitude
Unknown
Speed
Unknown
Apparent Right ascension
Unknown
Apparent Declination
Unknown
Sunlit
N/A
Visualization observer readout
Local Sidereal Time
04:20:29
Azimuth
Unknown
Elevation
Unknown
Doppler factor
Unknown
Orbital elements
Apogee altitude
801.915 km
Perigee altitude
797.186 km
Semi-major axis
7,177.687 km
Eccentricity
0.00033
Inclination
10.9987°
RAAN
259.4977°
Arg. of periapsis
273.692°
True anomaly
86.33077°
Mean anomaly
86.2931°
Eccentric anomaly
86.31193°
Mean motion
3.56916 °/min
Orbital period
100.86 mins
BSTAR
0.000063986
Loading maneuver chart data...
Computing Atmospheric mass density...
Loading historical data...
Loading historical data...
Loading historical data...
Loading historical data...
Loading historical data...
Loading historical data...
Loading historical data...
Other satellites on launch #145 in the year 2025 (2025-07-03 UTC)

Documentation

Showing up to 5 results
|